Location: Azul
(36.7830°S, 59.8500°W)
Time: 09:35:29
(UTC-03:00)

UKube-1 - Pass Details

Date: 25 October 2021
Orbit: 611 x 617 km, 98.4° (Epoch: 07 December)

Event Time Altitude Azimuth Distance (km) Brightness Sun altitude
Exits shadow 21:51:43 19° 310° (NW) 1,503 ? -26.3°
Maximum altitude 21:53:28 24° 276° (W) 1,303 ? -26.6°
Drops below altitude 10° 21:57:00 10° 222° (SW) 2,003 ? -27.1°
Sets 21:59:34 0° 207° (SSW) 2,917 ? -27.5°
